Tracking 17925 objects as of 20-January-2017
HD Live streaming from Space Station
objects crossing your sky now

SL-16 DEB

Track SL-16 DEB now!
10-day predictions


NORAD ID: 22453
Int'l Code: 1992-093ES
Perigee: 823.7 km
Apogee: 1,081.8 km
Inclination: 70.8 °
Period: 104.0 minutes
Semi major axis: 7323 km
RCS: 0.0192 m2 (small)
Launch date: December 25, 1992
Source: Commonwealth of Independent States (former USSR) (CIS)
Launch site: TYURATAM MISSILE AND SPACE COMPLEX (TTMTR)

Note: This is SATELLITE DEBRIS
Your satellite tracking list
Your tracking list is empty





NASA's NSSDC Master Catalog

Two Line Element Set (TLE):
1 22453U 92093ES  17019.75723469  .00000092  00000-0  10833-3 0  9999
2 22453  70.8038 245.9663 0176225 278.4238 208.2792 13.85172193211257
Source of the keplerian elements: AFSPC